23.04.2024;22:00;62
23.04.2024;21:00;76
23.04.2024;20:00;80
23.04.2024;19:00;77
23.04.2024;18:00;87
23.04.2024;17:00;90
23.04.2024;16:00;94
23.04.2024;15:00;91
23.04.2024;14:00;87
23.04.2024;13:00;#
23.04.2024;12:00;#
23.04.2024;11:00;#
23.04.2024;10:00;#
23.04.2024;09:00;47
23.04.2024;08:00;26
23.04.2024;07:00;18
23.04.2024;06:00;24
23.04.2024;05:00;32
23.04.2024;04:00;27
23.04.2024;03:00;36
23.04.2024;02:00;41
23.04.2024;01:00;44
23.04.2024;00:00;50
22.04.2024;23:00;64
22.04.2024;22:00;68
22.04.2024;21:00;78
22.04.2024;20:00;91
22.04.2024;19:00;93
22.04.2024;18:00;94
22.04.2024;17:00;96
22.04.2024;16:00;96
22.04.2024;15:00;94
22.04.2024;14:00;89
22.04.2024;13:00;83
22.04.2024;12:00;80
22.04.2024;11:00;76
22.04.2024;10:00;70
22.04.2024;09:00;63
22.04.2024;08:00;51
22.04.2024;07:00;41
22.04.2024;06:00;43
22.04.2024;05:00;35
22.04.2024;04:00;41
22.04.2024;03:00;49
22.04.2024;02:00;42
22.04.2024;01:00;32
22.04.2024;00:00;53
21.04.2024;23:00;40
